Location: *
(58.7167°N, 26.1833°E)
Time: 23:24:37
(UTC+00:00)

Cosmos 1934 Rocket - Pass Details

Date: 25 August 2019
Orbit: 937 x 1000 km, 83.0° (Epoch: 17 September)

Event Time Altitude Azimuth Distance (km) Brightness Sun altitude
Rises 22:54:02 0° 346° (NNW) 3,629 8.2 -20.3°
Reaches altitude 10° 22:56:34 10° 343° (NNW) 2,674 7.2 -20.2°
Maximum altitude 23:02:31 58° 266° (W) 1,087 4.1 -20.1°
Enters shadow 23:04:53 36° 205° (SSW) 1,457 4.4 -20.0°
